Regional Weather Roundup
Issued by NWS Jackson, KY

Home | Current Version | Previous Version | Text Only | Print | Product List | Glossary Off
Versions: 1 2 3 4 5 6 7 8 9 10 11 12 13 14 15 16 17 18 19 20 21 22 23 24 25 26 27

000
ASUS43 KJKL 282010
RWRJKL

EAST KENTUCKY HOURLY WEATHER ROUNDUP
NATIONAL WEATHER SERVICE JACKSON KY
400 PM EDT THU JUL 28 2016

NOTE: "FAIR" INDICATES FEW OR NO CLOUDS BELOW 12,000 FEET WITH
NO SIGNIFICANT WEATHER AND/OR OBSTRUCTIONS TO VISIBILITY.

* THESE REPORTS ARE NOT UNDER NWS QUALITY CONTROL AND MAY NOT
  REPORT WEATHER SUCH AS PRECIPITATION AND FOG.

KYZ079-080-083-085-087-088-110-112-115-119-120-282100
...EASTERN KENTUCKY...

CITY           SKY/WX    TMP DP  RH WIND       PRES   REMARKS
JACKSON        CLOUDY    73  70  90 CALM      29.93F
LONDON         RAIN      72  68  87 CALM      29.93S FOG
SOMERSET*      LGT RAIN  70  70 100 CALM      29.94S
MONTICELLO*    RAIN     N/A N/A N/A VRB7      29.94F
WILLIAMSBURG*  CLOUDY    72  72 100 CALM      29.94S VSB 3/4
MIDDLESBORO*   CLOUDY    82  71  70 SW10      29.92R
HARLAN APT*    CLOUDY    81  68  65 CALM      29.90F
PIKE CO APT*   CLOUDY    73  72  97 W3        29.94F
BIG SANDY APT* CLOUDY    72  71  97 CALM      29.93S
MOREHEAD APT*  LGT RAIN  73  72  94 CALM      29.94S
ASHLAND*       CLOUDY    75  72  88 W5        29.88S
$$

KYZ035-036-041-042-044-050-067-078-099-282100
...CENTRAL KENTUCKY...

CITY           SKY/WX    TMP DP  RH WIND       PRES   REMARKS
MT STERLING*   LGT RAIN  72  72 100 CALM      29.93S
FLEMING/MASON* RAIN      73  71  95 CALM      29.92F
DANVILLE*      RAIN      72  70  94 CALM      29.93F
LEXINGTON      LGT RAIN  75  71  87 SW5       29.91F
FRANKFORT      CLOUDY    79  72  79 VRB6      29.88F
LOUISVILLE     PTSUNNY   85  71  63 W7        29.86F HX  90
LEBANON*         N/A     75  72  88 SW3       29.92S
GLASGOW*       MOSUNNY   79  70  74 CALM      29.91F
BOWLING GREEN  CLOUDY    82  71  69 E3        29.90F
$$

KYZ091>093-OHZ055-061-077-WVZ005-015-034-035-042-282100
...SOUTHERN OHIO/WEST VIRGINIA...

CITY           SKY/WX    TMP DP  RH WIND       PRES   REMARKS
COVINGTON      CLOUDY    81  71  71 CALM      29.89F
COLUMBUS       CLOUDY    79  70  74 S3        29.87F
DAYTON         CLOUDY    84  64  50 CALM      29.89F
WILMINGTON     CLOUDY    79  71  76 SW3       29.89F
HUNTINGTON     CLOUDY    73  70  90 SW6       29.90S
CHARLESTON     LGT RAIN  74  72  93 NE3       29.88F VSB 1
PINEVILLE*     CLOUDY    83  68  59 MISG      29.97S
BECKLEY        CLOUDY    79  66  64 W10       29.97S
BLUEFIELD      CLOUDY    77  67  71 W10G20    30.00S
LOGAN CO APT*  CLOUDY    72  72 100 VRB5      29.93S FOG
$$

VAZ002-007-008-TNZ017-027-036-066-071-282100
...SOUTHWEST VIRGINIA/EAST TENNESSEE...

CITY           SKY/WX    TMP DP  RH WIND       PRES   REMARKS
WISE*          CLOUDY    79  63  57 SW8       30.00F
JONESVILLE*      N/A     86  68  54 S8        29.93F
ABINGDON*      PTSUNNY   85  71  61 W12       29.95F HX  90
BRISTOL        MOSUNNY   89  68  49 SW15      29.92F HX  93
MORRISTOWN*    CLOUDY    86  66  51 SW14G21   29.92S
KNOXVILLE      PTSUNNY   85  69  58 SW17      29.91F
OAK RIDGE      CLOUDY    82  71  69 VRB6      29.93F
CROSSVILLE     CLOUDY    74  72  93 SW5       29.97S
NASHVILLE      PTSUNNY   83  71  67 NW8       29.92S
$$

...KEY TO REMARKS...
VSB - VISIBILITY IN MILES
WCI - WIND CHILL INDEX
HX  - HEAT INDEX

$$




USA.gov is the U.S. government's official web portal to all federal, state and local government web resources and services.